Weather History for Fayetteville, AR

Change the Weather History Date:

Monday, December 31, 2012

  Actual Average Record
Temperature  
Mean Temperature 36 °F 36 °F  
Max Temperature 38 °F 46 °F 78 °F (1951)
Min Temperature 33 °F 25 °F 1 °F (1976)
Degree Days  
Heating Degree Days 29 30  
Month to date heating degree days 705 853  
Since 1 July heating degree days 1518 1683  
Moisture  
Dew Point 35 °F    
Average Humidity 78    
Maximum Humidity 100    
Minimum Humidity 56    
Precipitation  
Precipitation 0.88 in 0.09 in 0.88 in (2012)
Month to date precipitation 2.85 3.24  
Year to date precipitation 30.76 48.51  
Sea Level Pressure  
Sea Level Pressure 30.08 in    
Wind  
Wind Speed 3 mph (ESE)    
Max Wind Speed 15 mph    
Max Gust Speed 18 mph    
Visibility 5 miles    
Events Rain    
T = Trace of Precipitation, MM = Missing Value Source: NWS Daily Summary

Daily Weather History Graph

Daily Weather History Graph

Search for Another Location

Airport:

Trip Planner

Search our weather history database for the weather conditions in past years. The results will help you decide how hot, cold, wet, or windy it might be!

Date:

Astronomy

Dec. 31, 2012 Rise Set
Actual Time 7:27 AM CST 5:12 PM CST
Civil Twilight 6:58 AM CST 5:41 PM CST
Nautical Twilight 6:26 AM CST 6:13 PM CST
Astronomical Twilight 5:55 AM CST 6:44 PM CST
Moon 8:37 PM CST (12/31) 9:15 AM CST (12/31)
Length of Visible Light 10h 42m
Length of Day
9h 45m
Waning Gibbous, 90% of the Moon is Illuminated
Dec 31
Waning Gibbous
Jan 4
Last Quarter
Jan 11
New
Jan 18
First Quarter
Jan 26
Full

Hourly Weather History & Observations

Time (CST) Temp. Windchill Dew Point Humidity Pressure Visibility Wind Dir Wind Speed Gust Speed Precip Events Conditions
12:53 AM 34.0 °F 29.8 °F 27.0 °F 75% 30.25 in 6.0 mi South 4.6 mph - 0.02 in Rain Rain
1:53 AM 33.1 °F 28.7 °F 30.0 °F 89% 30.24 in 10.0 mi South 4.6 mph - 0.06 in Rain Light Rain
2:53 AM 34.0 °F - 30.9 °F 89% 30.22 in 9.0 mi Calm Calm - 0.04 in Rain Light Rain
3:16 AM 33.8 °F - 30.2 °F 87% 30.19 in 9.0 mi Calm Calm - 0.01 in Rain Light Rain
3:53 AM 34.0 °F 26.6 °F 30.0 °F 85% 30.22 in 8.0 mi South 9.2 mph - 0.02 in Rain Light Rain
4:53 AM 33.1 °F 26.1 °F 30.9 °F 92% 30.21 in 6.0 mi South 8.1 mph - 0.04 in Rain Light Rain
5:53 AM 33.1 °F 28.7 °F 30.9 °F 92% 30.19 in 5.0 mi South 4.6 mph - 0.07 in Rain Light Rain
6:53 AM 34.0 °F - 32.0 °F 92% 30.17 in 7.0 mi Calm Calm - 0.06 in Rain Light Rain
7:53 AM 34.0 °F 29.8 °F 32.0 °F 92% 30.14 in 6.0 mi East 4.6 mph - 0.04 in Rain Light Rain
8:53 AM 34.0 °F 29.8 °F 33.1 °F 96% 30.15 in 2.5 mi East 4.6 mph - 0.09 in Rain Light Rain
9:00 AM 33.8 °F 28.6 °F 33.8 °F 100% 30.12 in 3.0 mi ENE 5.8 mph - 0.01 in Rain Light Rain
9:16 AM 33.8 °F 30.8 °F 33.8 °F 100% 30.11 in 3.0 mi ENE 3.5 mph - 0.02 in Rain Light Rain
9:46 AM 33.8 °F 29.6 °F 33.8 °F 100% 30.11 in 4.0 mi ENE 4.6 mph - 0.05 in Rain Light Rain
9:53 AM 34.0 °F 29.8 °F 33.1 °F 96% 30.14 in 5.0 mi ENE 4.6 mph - 0.06 in Rain Light Rain
10:26 AM 33.8 °F - 33.8 °F 100% 30.13 in 2.0 mi Calm Calm - 0.08 in Rain Heavy Rain
10:33 AM 33.8 °F - 33.8 °F 100% 30.13 in 1.8 mi Calm Calm - 0.11 in Rain Heavy Rain
10:53 AM 35.1 °F - 33.1 °F 92% 30.16 in 3.0 mi Calm Calm - 0.15 in Rain Rain
11:53 AM 35.1 °F 31.0 °F 34.0 °F 96% 30.09 in 4.0 mi ENE 4.6 mph - 0.07 in Rain Light Rain
12:53 PM 35.1 °F - 34.0 °F 96% 30.08 in 2.0 mi Calm Calm - 0.09 in Rain Light Rain
1:43 PM 35.6 °F 31.7 °F 35.6 °F 100% 30.02 in 2.5 mi East 4.6 mph - 0.05 in Rain Light Rain
1:53 PM 36.0 °F 33.3 °F 36.0 °F 100% 30.04 in 1.8 mi East 3.5 mph - 0.06 in Rain Light Rain
2:01 PM 35.6 °F 31.7 °F 35.6 °F 100% 30.01 in 2.0 mi East 4.6 mph - 0.00 in Rain Light Rain
2:11 PM 35.6 °F 32.8 °F 35.6 °F 100% 30.00 in 4.0 mi ESE 3.5 mph - 0.01 in Rain Light Rain
2:27 PM 37.4 °F 34.9 °F 35.6 °F 93% 29.99 in 6.0 mi East 3.5 mph - 0.01 in   Overcast
2:53 PM 37.0 °F - 36.0 °F 96% 30.01 in 3.0 mi Calm Calm - 0.01 in   Overcast
3:02 PM 37.4 °F 34.9 °F 35.6 °F 93% 29.98 in 2.5 mi ENE 3.5 mph - 0.00 in   Overcast
3:09 PM 37.4 °F 34.9 °F 35.6 °F 93% 29.98 in 4.0 mi East 3.5 mph - 0.00 in   Overcast
3:36 PM 37.4 °F - 35.6 °F 93% 29.98 in 4.0 mi Calm Calm - 0.00 in   Overcast
3:53 PM 37.0 °F - 36.0 °F 96% 30.00 in 6.0 mi Calm Calm - 0.00 in   Overcast
4:06 PM 37.4 °F - 35.6 °F 93% 29.98 in 9.0 mi Calm Calm - N/A   Overcast
4:17 PM 37.4 °F - 35.6 °F 93% 29.98 in 10.0 mi Calm Calm - N/A   Overcast
4:53 PM 37.0 °F - 36.0 °F 96% 30.01 in 9.0 mi Calm Calm - N/A   Overcast
5:39 PM 37.4 °F 34.9 °F 37.4 °F 100% 29.99 in 8.0 mi South 3.5 mph - N/A   Overcast
5:53 PM 37.9 °F 34.4 °F 37.0 °F 97% 30.01 in 7.0 mi South 4.6 mph - N/A   Overcast
6:53 PM 37.9 °F 35.5 °F 37.0 °F 97% 30.01 in 10.0 mi South 3.5 mph - N/A   Overcast
7:53 PM 37.9 °F - 37.0 °F 97% 30.02 in 8.0 mi Calm Calm - N/A   Overcast
8:53 PM 37.0 °F - 37.0 °F 100% 30.04 in 6.0 mi Calm Calm - N/A   Overcast
9:17 PM 37.4 °F - 37.4 °F 100% 30.01 in 2.0 mi Calm Calm - N/A   Overcast
9:46 PM 37.4 °F 34.9 °F 37.4 °F 100% 30.02 in 1.8 mi SW 3.5 mph - N/A   Overcast
9:53 PM 37.4 °F 34.9 °F 37.4 °F 100% 30.03 in 1.8 mi SW 3.5 mph - N/A   Overcast
10:51 PM 37.4 °F 34.9 °F 37.4 °F 100% 30.04 in 0.8 mi NW 3.5 mph - N/A   Mist
10:53 PM 37.0 °F 33.3 °F 37.0 °F 100% 30.06 in 0.8 mi NW 4.6 mph - N/A   Mist
11:53 PM 37.0 °F 33.3 °F 37.0 °F 100% 30.07 in 1.2 mi WNW 4.6 mph - N/A   Overcast